ONEWEB-0343 (49209 NORAD) Tracking and Keplerian Element Data

This shows tracking and keplerian element data for the satellite.

Feedback or suggestion? Click here.




ElementValue
Catalog49209
NameONEWEB-0343
Epoch Orbit356
Epoch Day300.58334491
Epoch Year2021
RAAN314.0278
Inclination87.6126
Eccentricity0.0023565
Argument of Perigee143.193
Mean Anonmoly61.7809
Mean Motion14.5840411
Decay Rate-0.01369501
L11 49209U 21083Z 21300.58334491 -.01369501 00000-0 -31833+0 0 9995
L22 49209 87.6126 314.0278 0023565 143.1930 61.7809 14.58404110 3566

Live tracking and technical data element details for ONEWEB-0343 (NORAD 49209). ONEWEB-0343 can be tracked NOW for your location showing map with azimuth and elevation plus other details from your city location.

Track the satellite on the map from your city or location and see movement details for azimuth, elevation, latitude, longitude, range, height, and movement on the map or in text.







IsCatalogInMostPopularTable: catalog: 49209, numindb: 12
Update: records affected: 1



GetName: 49209 ONEWEB-0343

Hit Count: updated at: Thu, 28 Oct 2021 10:41:38 GMT